パンスターズ彗星

P/2015 R2 ( PanSTARRS ) 2024

English version
Home page
Updated on January 6, 2024

---------------------------------------------------------------------

・ プロフィール

・ 軌道要素

Epoch 2024 Nov. 26.0 TT = JDT 2460640.5
T 2024 Dec. 15.73374 TT                                 MPCW
q   2.4549840            (2000.0)            P               Q
n   0.10389947     Peri.  149.90379     +0.75233363     +0.65665732
a   4.4811949      Node   168.57666     -0.64505855     +0.75058071
e   0.4521586      Incl.   15.48260     -0.13376685     +0.07368699
P   9.49
From 24 observations 2015 Sept. 9-18, mean residual 0".5.

・ 光度変化

        m1 = 15.0 + 5 logΔ + 10.0 log r

---------------------------------------------------------------------

軌道要素はM.P.E.C. 2015-S90に掲載されたものです。
光度グラフはComet for Windowsで作成したものです。

---------------------------------------------------------------------

Copyright(C) Seiichi Yoshida (comet@aerith.net). All rights reserved.